Year,Month,Day,Hour,Minute,Value (Times are PST for temperature in C)
2022,07,25,00,00,21.30
2022,07,25,00,01,21.30
2022,07,25,00,02,21.20
2022,07,25,00,03,21.20
2022,07,25,00,04,21.20
2022,07,25,00,05,21.10
2022,07,25,00,06,21.10
2022,07,25,00,07,21.00
2022,07,25,00,08,21.00
2022,07,25,00,09,21.00
2022,07,25,00,10,20.90
2022,07,25,00,11,20.90
2022,07,25,00,12,20.80
2022,07,25,00,13,20.80
2022,07,25,00,14,20.80
2022,07,25,00,15,20.70
2022,07,25,00,16,20.70
2022,07,25,00,17,20.60
2022,07,25,00,18,20.60
2022,07,25,00,19,20.60
2022,07,25,00,20,20.50
2022,07,25,00,21,20.50
2022,07,25,00,22,20.40
2022,07,25,00,23,20.40
2022,07,25,00,24,20.40
2022,07,25,00,25,20.30
2022,07,25,00,26,20.30
2022,07,25,00,27,20.30
2022,07,25,00,28,20.30
2022,07,25,00,29,20.30
2022,07,25,00,30,20.30
2022,07,25,00,31,20.30
2022,07,25,00,32,20.30
2022,07,25,00,33,20.20
2022,07,25,00,34,20.20
2022,07,25,00,35,20.20
2022,07,25,00,36,20.20
2022,07,25,00,37,20.10
2022,07,25,00,38,20.10
2022,07,25,00,39,20.10
2022,07,25,00,40,20.10
2022,07,25,00,41,20.10
2022,07,25,00,42,20.10
2022,07,25,00,43,20.10
2022,07,25,00,44,20.10
2022,07,25,00,45,20.00
2022,07,25,00,46,20.00
2022,07,25,00,47,20.00
2022,07,25,00,48,20.00
2022,07,25,00,49,20.00
2022,07,25,00,50,20.00
2022,07,25,00,51,19.90
2022,07,25,00,52,19.90
2022,07,25,00,53,19.90
2022,07,25,00,54,19.90
2022,07,25,00,55,19.90
2022,07,25,00,56,19.90
2022,07,25,00,57,19.80
2022,07,25,00,58,19.80
2022,07,25,00,59,19.80
2022,07,25,01,00,19.80
2022,07,25,01,01,19.80
2022,07,25,01,02,19.80
2022,07,25,01,03,19.70
2022,07,25,01,04,19.80
2022,07,25,01,05,19.70
2022,07,25,01,06,19.70
2022,07,25,01,07,19.70
2022,07,25,01,08,19.70
2022,07,25,01,09,19.70
2022,07,25,01,10,19.70
2022,07,25,01,11,19.70
2022,07,25,01,12,19.70
2022,07,25,01,13,19.70
2022,07,25,01,14,19.70
2022,07,25,01,15,19.70
2022,07,25,01,16,19.70
2022,07,25,01,17,19.70
2022,07,25,01,18,19.60
2022,07,25,01,19,19.60
2022,07,25,01,20,19.60
2022,07,25,01,21,19.60
2022,07,25,01,22,19.60
2022,07,25,01,23,19.60
2022,07,25,01,24,19.60
2022,07,25,01,25,19.60
2022,07,25,01,26,19.60
2022,07,25,01,27,19.60
2022,07,25,01,28,19.60
2022,07,25,01,29,19.60
2022,07,25,01,30,19.60
2022,07,25,01,31,19.60
2022,07,25,01,32,19.60
2022,07,25,01,33,19.60
2022,07,25,01,34,19.60
2022,07,25,01,35,19.60
2022,07,25,01,36,19.60
2022,07,25,01,37,19.60
2022,07,25,01,38,19.60
2022,07,25,01,39,19.60
2022,07,25,01,40,19.60
2022,07,25,01,41,19.60
2022,07,25,01,42,19.60
2022,07,25,01,43,19.50
2022,07,25,01,44,19.50
2022,07,25,01,45,19.50
2022,07,25,01,46,19.50
2022,07,25,01,47,19.40
2022,07,25,01,48,19.40
2022,07,25,01,49,19.40
2022,07,25,01,50,19.40
2022,07,25,01,51,19.40
2022,07,25,01,52,19.40
2022,07,25,01,53,19.40
2022,07,25,01,54,19.30
2022,07,25,01,55,19.30
2022,07,25,01,56,19.30
2022,07,25,01,57,19.30
2022,07,25,01,58,19.30
2022,07,25,01,59,19.30
2022,07,25,02,00,19.30
2022,07,25,02,01,19.30
2022,07,25,02,02,19.20
2022,07,25,02,03,19.20
2022,07,25,02,04,19.20
2022,07,25,02,05,19.20
2022,07,25,02,06,19.20
2022,07,25,02,07,19.20
2022,07,25,02,08,19.20
2022,07,25,02,09,19.20
2022,07,25,02,10,19.10
2022,07,25,02,11,19.10
2022,07,25,02,12,19.10
2022,07,25,02,13,19.10
2022,07,25,02,14,19.10
2022,07,25,02,15,19.10
2022,07,25,02,16,19.10
2022,07,25,02,17,19.10
2022,07,25,02,18,19.00
2022,07,25,02,19,19.10
2022,07,25,02,20,19.10
2022,07,25,02,21,19.10
2022,07,25,02,22,19.10
2022,07,25,02,23,19.10
2022,07,25,02,24,19.10
2022,07,25,02,25,19.10
2022,07,25,02,26,19.10
2022,07,25,02,27,19.10
2022,07,25,02,28,19.10
2022,07,25,02,29,19.10
2022,07,25,02,30,19.10
2022,07,25,02,31,19.10
2022,07,25,02,32,19.10
2022,07,25,02,33,19.10
2022,07,25,02,34,19.10
2022,07,25,02,35,19.10
2022,07,25,02,36,19.10
2022,07,25,02,37,19.10
2022,07,25,02,38,19.10
2022,07,25,02,39,19.10
2022,07,25,02,40,19.10
2022,07,25,02,41,19.00
2022,07,25,02,42,19.00
2022,07,25,02,43,19.00
2022,07,25,02,44,19.00
2022,07,25,02,45,18.90
2022,07,25,02,46,18.90
2022,07,25,02,47,18.90
2022,07,25,02,48,18.90
2022,07,25,02,49,18.90
2022,07,25,02,50,18.80
2022,07,25,02,51,18.80
2022,07,25,02,52,18.80
2022,07,25,02,53,18.80
2022,07,25,02,54,18.80
2022,07,25,02,55,18.70
2022,07,25,02,56,18.70
2022,07,25,02,57,18.70
2022,07,25,02,58,18.70
2022,07,25,02,59,18.70
2022,07,25,03,00,18.70
2022,07,25,03,01,18.70
2022,07,25,03,02,18.70
2022,07,25,03,03,18.70
2022,07,25,03,04,18.70
2022,07,25,03,05,18.70
2022,07,25,03,06,18.70
2022,07,25,03,07,18.70
2022,07,25,03,08,18.70
2022,07,25,03,09,18.70
2022,07,25,03,10,18.70
2022,07,25,03,11,18.70
2022,07,25,03,12,18.70
2022,07,25,03,13,18.70
2022,07,25,03,14,18.70
2022,07,25,03,15,18.70
2022,07,25,03,16,18.70
2022,07,25,03,17,18.70
2022,07,25,03,18,18.70
2022,07,25,03,19,18.70
2022,07,25,03,20,18.70
2022,07,25,03,21,18.70
2022,07,25,03,22,18.70
2022,07,25,03,23,18.70
2022,07,25,03,24,18.80
2022,07,25,03,25,18.80
2022,07,25,03,26,18.80
2022,07,25,03,27,18.80
2022,07,25,03,28,18.80
2022,07,25,03,29,18.80
2022,07,25,03,30,18.80
2022,07,25,03,31,18.80
2022,07,25,03,32,18.80
2022,07,25,03,33,18.80
2022,07,25,03,34,18.80
2022,07,25,03,35,18.80
2022,07,25,03,36,18.80
2022,07,25,03,37,18.80
2022,07,25,03,38,18.80
2022,07,25,03,39,18.80
2022,07,25,03,40,18.80
2022,07,25,03,41,18.80
2022,07,25,03,42,18.80
2022,07,25,03,43,18.80
2022,07,25,03,44,18.80
2022,07,25,03,45,18.80
2022,07,25,03,46,18.80
2022,07,25,03,47,18.80
2022,07,25,03,48,18.80
2022,07,25,03,49,18.80
2022,07,25,03,50,18.80
2022,07,25,03,51,18.80
2022,07,25,03,52,18.80
2022,07,25,03,53,18.80
2022,07,25,03,54,18.90
2022,07,25,03,55,18.80
2022,07,25,03,56,18.90
2022,07,25,03,57,18.90
2022,07,25,03,58,18.90
2022,07,25,03,59,18.90
2022,07,25,04,00,18.90
2022,07,25,04,01,18.90
2022,07,25,04,02,18.90
2022,07,25,04,03,18.90
2022,07,25,04,04,18.90
2022,07,25,04,05,18.90
2022,07,25,04,06,18.90
2022,07,25,04,07,18.90
2022,07,25,04,08,18.90
2022,07,25,04,09,18.90
2022,07,25,04,10,18.90
2022,07,25,04,11,18.90
2022,07,25,04,12,18.90
2022,07,25,04,13,18.90
2022,07,25,04,14,18.90
2022,07,25,04,15,18.90
2022,07,25,04,16,18.90
2022,07,25,04,17,19.00
2022,07,25,04,18,18.90
2022,07,25,04,19,19.00
2022,07,25,04,20,19.00
2022,07,25,04,21,19.00
2022,07,25,04,22,19.00
2022,07,25,04,23,19.00
2022,07,25,04,24,19.00
2022,07,25,04,25,19.10
2022,07,25,04,26,19.00
2022,07,25,04,27,19.10
2022,07,25,04,28,19.10
2022,07,25,04,29,19.10
2022,07,25,04,30,19.10
2022,07,25,04,31,19.10
2022,07,25,04,32,19.20
2022,07,25,04,33,19.20
2022,07,25,04,34,19.20
2022,07,25,04,35,19.20
2022,07,25,04,36,19.20
2022,07,25,04,37,19.20
2022,07,25,04,38,19.20
2022,07,25,04,39,19.30
2022,07,25,04,40,19.30
2022,07,25,04,41,19.30
2022,07,25,04,42,19.30
2022,07,25,04,43,19.30
2022,07,25,04,44,19.30
2022,07,25,04,45,19.40
2022,07,25,04,46,19.40
2022,07,25,04,47,19.40
2022,07,25,04,48,19.40
2022,07,25,04,49,19.40
2022,07,25,04,50,19.40
2022,07,25,04,51,19.40
2022,07,25,04,52,19.40
2022,07,25,04,53,19.40
2022,07,25,04,54,19.40
2022,07,25,04,55,19.40
2022,07,25,04,56,19.40
2022,07,25,04,57,19.40
2022,07,25,04,58,19.40
2022,07,25,04,59,19.40
2022,07,25,05,00,19.30
2022,07,25,05,01,19.30
2022,07,25,05,02,19.30
2022,07,25,05,03,19.30
2022,07,25,05,04,19.30
2022,07,25,05,05,19.30
2022,07,25,05,06,19.20
2022,07,25,05,07,19.20
2022,07,25,05,08,19.20
2022,07,25,05,09,19.20
2022,07,25,05,10,19.20
2022,07,25,05,11,19.10
2022,07,25,05,12,19.10
2022,07,25,05,13,19.10
2022,07,25,05,14,19.10
2022,07,25,05,15,19.10
2022,07,25,05,16,19.10
2022,07,25,05,17,19.00
2022,07,25,05,18,19.10
2022,07,25,05,19,19.10
2022,07,25,05,20,19.10
2022,07,25,05,21,19.10
2022,07,25,05,22,19.10
2022,07,25,05,23,19.10
2022,07,25,05,24,19.10
2022,07,25,05,25,19.10
2022,07,25,05,26,19.10
2022,07,25,05,27,19.10
2022,07,25,05,28,19.10
2022,07,25,05,29,19.10
2022,07,25,05,30,19.10
2022,07,25,05,31,19.10
2022,07,25,05,32,19.10
2022,07,25,05,33,19.00
2022,07,25,05,34,19.00
2022,07,25,05,35,19.00
2022,07,25,05,36,19.00
2022,07,25,05,37,19.10
2022,07,25,05,38,19.10
2022,07,25,05,39,19.10
2022,07,25,05,40,19.20
2022,07,25,05,41,19.30
2022,07,25,05,42,19.30
2022,07,25,05,43,19.30
2022,07,25,05,44,19.30
2022,07,25,05,45,19.40
2022,07,25,05,46,19.40
2022,07,25,05,47,19.40
2022,07,25,05,48,19.40
2022,07,25,05,49,19.40
2022,07,25,05,50,19.40
2022,07,25,05,51,19.50
2022,07,25,05,52,19.50
2022,07,25,05,53,19.50
2022,07,25,05,54,19.50
2022,07,25,05,55,19.50
2022,07,25,05,56,19.50
2022,07,25,05,57,19.50
2022,07,25,05,58,19.50
2022,07,25,05,59,19.50
2022,07,25,06,00,19.50
2022,07,25,06,01,19.60
2022,07,25,06,02,19.60
2022,07,25,06,03,19.60
2022,07,25,06,04,19.60
2022,07,25,06,05,19.60
2022,07,25,06,06,19.60
2022,07,25,06,07,19.60
2022,07,25,06,08,19.60
2022,07,25,06,09,19.60
2022,07,25,06,10,19.60
2022,07,25,06,11,19.60
2022,07,25,06,12,19.60
2022,07,25,06,13,19.60
2022,07,25,06,14,19.60
2022,07,25,06,15,19.60
2022,07,25,06,16,19.50
2022,07,25,06,17,19.50
2022,07,25,06,18,19.50
2022,07,25,06,19,19.40
2022,07,25,06,20,19.40
2022,07,25,06,21,19.40
2022,07,25,06,22,19.40
2022,07,25,06,23,19.30
2022,07,25,06,24,19.30
2022,07,25,06,25,19.30
2022,07,25,06,26,19.30
2022,07,25,06,27,19.30
2022,07,25,06,28,19.30
2022,07,25,06,29,19.30
2022,07,25,06,30,19.30
2022,07,25,06,31,19.30
2022,07,25,06,32,19.30
2022,07,25,06,33,19.30
2022,07,25,06,34,19.30
2022,07,25,06,35,19.30
2022,07,25,06,36,19.20
2022,07,25,06,37,19.30
2022,07,25,06,38,19.30
2022,07,25,06,39,19.30
2022,07,25,06,40,19.20
2022,07,25,06,41,19.20
2022,07,25,06,42,19.20
2022,07,25,06,43,19.20
2022,07,25,06,44,19.20
2022,07,25,06,45,19.20
2022,07,25,06,46,19.20
2022,07,25,06,47,19.10
2022,07,25,06,48,19.10
2022,07,25,06,49,19.10
2022,07,25,06,50,19.10
2022,07,25,06,51,19.10
2022,07,25,06,52,19.10
2022,07,25,06,53,19.10
2022,07,25,06,54,19.10
2022,07,25,06,55,19.10
2022,07,25,06,56,19.10
2022,07,25,06,57,19.10
2022,07,25,06,58,19.10
2022,07,25,06,59,19.10
2022,07,25,07,00,19.10
2022,07,25,07,01,19.10
2022,07,25,07,02,19.10
2022,07,25,07,03,19.20
2022,07,25,07,04,19.20
2022,07,25,07,05,19.20
2022,07,25,07,06,19.20
2022,07,25,07,07,19.20
2022,07,25,07,08,19.20
2022,07,25,07,09,19.20
2022,07,25,07,10,19.20
2022,07,25,07,11,19.20
2022,07,25,07,12,19.20
2022,07,25,07,13,19.20
2022,07,25,07,14,19.20
2022,07,25,07,15,19.20
2022,07,25,07,16,19.20
2022,07,25,07,17,19.20
2022,07,25,07,18,19.20
2022,07,25,07,19,19.20
2022,07,25,07,20,19.20
2022,07,25,07,21,19.20
2022,07,25,07,22,19.20
2022,07,25,07,23,19.30
2022,07,25,07,24,19.30
2022,07,25,07,25,19.30
2022,07,25,07,26,19.40
2022,07,25,07,27,19.40
2022,07,25,07,28,19.40
2022,07,25,07,29,19.50
2022,07,25,07,30,19.60
2022,07,25,07,31,19.60
2022,07,25,07,32,19.60
2022,07,25,07,33,19.70
2022,07,25,07,34,19.70
2022,07,25,07,35,19.70
2022,07,25,07,36,19.70
2022,07,25,07,37,19.80
2022,07,25,07,38,19.80
2022,07,25,07,39,19.80
2022,07,25,07,40,19.90
2022,07,25,07,41,19.90
2022,07,25,07,42,19.90
2022,07,25,07,43,19.90
2022,07,25,07,44,19.90
2022,07,25,07,45,19.90
2022,07,25,07,46,19.90
2022,07,25,07,47,19.90
2022,07,25,07,48,19.90
2022,07,25,07,49,19.90
2022,07,25,07,50,20.00
2022,07,25,07,51,20.00
2022,07,25,07,52,20.00
2022,07,25,07,53,20.00
2022,07,25,07,54,20.00
2022,07,25,07,55,20.00
2022,07,25,07,56,20.00
2022,07,25,07,57,20.10
2022,07,25,07,58,20.10
2022,07,25,07,59,20.10
2022,07,25,08,00,20.20
2022,07,25,08,01,20.20
2022,07,25,08,02,20.30
2022,07,25,08,03,20.30
2022,07,25,08,04,20.40
2022,07,25,08,05,20.40
2022,07,25,08,06,20.50
2022,07,25,08,07,20.50
2022,07,25,08,08,20.50
2022,07,25,08,09,20.60
2022,07,25,08,10,20.60
2022,07,25,08,11,20.70
2022,07,25,08,12,20.70
2022,07,25,08,13,20.70
2022,07,25,08,14,20.80
2022,07,25,08,15,20.80
2022,07,25,08,16,20.80
2022,07,25,08,17,20.80
2022,07,25,08,18,20.80
2022,07,25,08,19,20.90
2022,07,25,08,20,20.90
2022,07,25,08,21,20.90
2022,07,25,08,22,20.90
2022,07,25,08,23,20.90
2022,07,25,08,24,20.90
2022,07,25,08,25,20.90
2022,07,25,08,26,21.00
2022,07,25,08,27,21.00
2022,07,25,08,28,21.10
2022,07,25,08,29,21.10
2022,07,25,08,30,21.10
2022,07,25,08,31,21.10
2022,07,25,08,32,21.20
2022,07,25,08,33,21.20
2022,07,25,08,34,21.20
2022,07,25,08,35,21.20
2022,07,25,08,36,21.20
2022,07,25,08,37,21.20
2022,07,25,08,38,21.30
2022,07,25,08,39,21.30
2022,07,25,08,40,21.30
2022,07,25,08,41,21.40
2022,07,25,08,42,21.40
2022,07,25,08,43,21.40
2022,07,25,08,44,21.40
2022,07,25,08,45,21.40
2022,07,25,08,46,21.40
2022,07,25,08,47,21.40
2022,07,25,08,48,21.30
2022,07,25,08,49,21.30
2022,07,25,08,50,21.30
2022,07,25,08,51,21.30
2022,07,25,08,52,21.30
2022,07,25,08,53,21.30
2022,07,25,08,54,21.30
2022,07,25,08,55,21.30
2022,07,25,08,56,21.30
2022,07,25,08,57,21.30
2022,07,25,08,58,21.30
2022,07,25,08,59,21.30
2022,07,25,09,00,21.40
2022,07,25,09,01,21.40
2022,07,25,09,02,21.50
2022,07,25,09,03,21.60
2022,07,25,09,04,21.70
2022,07,25,09,05,21.80
2022,07,25,09,06,21.90
2022,07,25,09,07,21.90
2022,07,25,09,08,22.00
2022,07,25,09,09,22.10
2022,07,25,09,10,22.20
2022,07,25,09,11,22.20
2022,07,25,09,12,22.30
2022,07,25,09,13,22.40
2022,07,25,09,14,22.40
2022,07,25,09,15,22.50
2022,07,25,09,16,22.40
2022,07,25,09,17,22.40
2022,07,25,09,18,22.40
2022,07,25,09,19,22.40
2022,07,25,09,20,22.40
2022,07,25,09,21,22.40
2022,07,25,09,22,22.50
2022,07,25,09,23,22.50
2022,07,25,09,24,22.60
2022,07,25,09,25,22.60
2022,07,25,09,26,22.70
2022,07,25,09,27,22.80
2022,07,25,09,28,22.80
2022,07,25,09,29,22.90
2022,07,25,09,30,23.00
2022,07,25,09,31,23.10
2022,07,25,09,32,23.10
2022,07,25,09,33,23.10
2022,07,25,09,34,23.20
2022,07,25,09,35,23.20
2022,07,25,09,36,23.20
2022,07,25,09,37,23.20
2022,07,25,09,38,23.20
2022,07,25,09,39,23.20
2022,07,25,09,40,23.20
2022,07,25,09,41,23.20
2022,07,25,09,42,23.30
2022,07,25,09,43,23.30
2022,07,25,09,44,23.40
2022,07,25,09,45,23.50
2022,07,25,09,46,23.60
2022,07,25,09,47,23.70
2022,07,25,09,48,23.80
2022,07,25,09,49,23.90
2022,07,25,09,50,24.00
2022,07,25,09,51,24.10
2022,07,25,09,52,24.10
2022,07,25,09,53,24.10
2022,07,25,09,54,24.00
2022,07,25,09,55,23.90
2022,07,25,09,56,23.80
2022,07,25,09,57,23.80
2022,07,25,09,58,23.80
2022,07,25,09,59,23.80
2022,07,25,10,00,23.80
2022,07,25,10,01,23.80
2022,07,25,10,02,23.80
2022,07,25,10,03,23.90
2022,07,25,10,04,24.00
2022,07,25,10,05,24.00
2022,07,25,10,06,24.10
2022,07,25,10,07,24.20
2022,07,25,10,08,24.20
2022,07,25,10,09,24.20
2022,07,25,10,10,24.30
2022,07,25,10,11,24.30
2022,07,25,10,12,24.30
2022,07,25,10,13,24.30
2022,07,25,10,14,24.30
2022,07,25,10,15,24.30
2022,07,25,10,16,24.40
2022,07,25,10,17,24.40
2022,07,25,10,18,24.50
2022,07,25,10,19,24.60
2022,07,25,10,20,24.60
2022,07,25,10,21,24.70
2022,07,25,10,22,24.70
2022,07,25,10,23,24.70
2022,07,25,10,24,24.70
2022,07,25,10,25,24.70
2022,07,25,10,26,24.70
2022,07,25,10,27,24.70
2022,07,25,10,28,24.70
2022,07,25,10,29,24.70
2022,07,25,10,30,24.70
2022,07,25,10,31,24.80
2022,07,25,10,32,24.80
2022,07,25,10,33,24.90
2022,07,25,10,34,24.90
2022,07,25,10,35,25.00
2022,07,25,10,36,25.00
2022,07,25,10,37,24.90
2022,07,25,10,38,24.90
2022,07,25,10,39,24.90
2022,07,25,10,40,25.00
2022,07,25,10,41,25.00
2022,07,25,10,42,24.90
2022,07,25,10,43,24.90
2022,07,25,10,44,24.90
2022,07,25,10,45,25.00
2022,07,25,10,46,25.00
2022,07,25,10,47,25.10
2022,07,25,10,48,25.20
2022,07,25,10,49,25.30
2022,07,25,10,50,25.30
2022,07,25,10,51,25.40
2022,07,25,10,52,25.40
2022,07,25,10,53,25.40
2022,07,25,10,54,25.40
2022,07,25,10,55,25.40
2022,07,25,10,56,25.40
2022,07,25,10,57,25.40
2022,07,25,10,58,25.20
2022,07,25,10,59,25.20
2022,07,25,11,00,25.20
2022,07,25,11,01,25.20
2022,07,25,11,02,25.20
2022,07,25,11,03,25.20
2022,07,25,11,04,25.20
2022,07,25,11,05,25.30
2022,07,25,11,06,25.40
2022,07,25,11,07,25.50
2022,07,25,11,08,25.60
2022,07,25,11,09,25.70
2022,07,25,11,10,25.70
2022,07,25,11,11,25.80
2022,07,25,11,12,25.90
2022,07,25,11,13,25.90
2022,07,25,11,14,26.00
2022,07,25,11,15,26.00
2022,07,25,11,16,26.10
2022,07,25,11,17,26.10
2022,07,25,11,18,26.20
2022,07,25,11,19,26.20
2022,07,25,11,20,26.20
2022,07,25,11,21,26.30
2022,07,25,11,22,26.30
2022,07,25,11,23,26.30
2022,07,25,11,24,26.30
2022,07,25,11,25,26.40
2022,07,25,11,26,26.30
2022,07,25,11,27,26.30
2022,07,25,11,28,26.30
2022,07,25,11,29,26.20
2022,07,25,11,30,26.20
2022,07,25,11,31,26.20
2022,07,25,11,32,26.20
2022,07,25,11,33,26.20
2022,07,25,11,34,26.20
2022,07,25,11,35,26.20
2022,07,25,11,36,26.30
2022,07,25,11,37,26.30
2022,07,25,11,38,26.30
2022,07,25,11,39,26.30
2022,07,25,11,40,26.30
2022,07,25,11,41,26.30
2022,07,25,11,42,26.30
2022,07,25,11,43,26.40
2022,07,25,11,44,26.40
2022,07,25,11,45,26.40
2022,07,25,11,46,26.40
2022,07,25,11,47,26.40
2022,07,25,11,48,26.50
2022,07,25,11,49,26.60
2022,07,25,11,50,26.60
2022,07,25,11,51,26.60
2022,07,25,11,52,26.60
2022,07,25,11,53,26.60
2022,07,25,11,54,26.70
2022,07,25,11,55,26.70
2022,07,25,11,56,26.60
2022,07,25,11,57,26.60
2022,07,25,11,58,26.60
2022,07,25,11,59,26.50
2022,07,25,12,00,26.50
2022,07,25,12,01,26.50
2022,07,25,12,02,26.50
2022,07,25,12,03,26.60
2022,07,25,12,04,26.60
2022,07,25,12,05,26.60
2022,07,25,12,06,26.70
2022,07,25,12,07,26.70
2022,07,25,12,08,26.80
2022,07,25,12,09,26.80
2022,07,25,12,10,26.80
2022,07,25,12,11,26.80
2022,07,25,12,12,26.80
2022,07,25,12,13,26.80
2022,07,25,12,14,26.70
2022,07,25,12,15,26.70
2022,07,25,12,16,26.50
2022,07,25,12,17,26.40
2022,07,25,12,18,26.40
2022,07,25,12,19,26.40
2022,07,25,12,20,26.40
2022,07,25,12,21,26.40
2022,07,25,12,22,26.40
2022,07,25,12,23,26.40
2022,07,25,12,24,26.40
2022,07,25,12,25,26.50
2022,07,25,12,26,26.50
2022,07,25,12,27,26.50
2022,07,25,12,28,26.60
2022,07,25,12,29,26.60
2022,07,25,12,30,26.60
2022,07,25,12,31,26.60
2022,07,25,12,32,26.50
2022,07,25,12,33,26.50
2022,07,25,12,34,26.40
2022,07,25,12,35,26.40
2022,07,25,12,36,26.40
2022,07,25,12,37,26.40
2022,07,25,12,38,26.50
2022,07,25,12,39,26.60
2022,07,25,12,40,26.60
2022,07,25,12,41,26.70
2022,07,25,12,42,26.90
2022,07,25,12,43,27.00
2022,07,25,12,44,27.20
2022,07,25,12,45,27.30
2022,07,25,12,46,27.40
2022,07,25,12,47,27.50
2022,07,25,12,48,27.50
2022,07,25,12,49,27.50
2022,07,25,12,50,27.50
2022,07,25,12,51,27.50
2022,07,25,12,52,27.50
2022,07,25,12,53,27.50
2022,07,25,12,54,27.50
2022,07,25,12,55,27.40
2022,07,25,12,56,27.50
2022,07,25,12,57,27.50
2022,07,25,12,58,27.50
2022,07,25,12,59,27.50
2022,07,25,13,00,27.50
2022,07,25,13,01,27.50
2022,07,25,13,02,27.50
2022,07,25,13,03,27.50
2022,07,25,13,04,27.50
2022,07,25,13,05,27.50
2022,07,25,13,06,27.50
2022,07,25,13,07,27.50
2022,07,25,13,08,27.40
2022,07,25,13,09,27.40
2022,07,25,13,10,27.40
2022,07,25,13,11,27.40
2022,07,25,13,12,27.40
2022,07,25,13,13,27.40
2022,07,25,13,14,27.30
2022,07,25,13,15,27.30
2022,07,25,13,16,27.20
2022,07,25,13,17,27.20
2022,07,25,13,18,27.20
2022,07,25,13,19,27.20
2022,07,25,13,20,27.10
2022,07,25,13,21,27.00
2022,07,25,13,22,27.10
2022,07,25,13,23,27.10
2022,07,25,13,24,27.10
2022,07,25,13,25,27.20
2022,07,25,13,26,27.20
2022,07,25,13,27,27.20
2022,07,25,13,28,27.20
2022,07,25,13,29,27.30
2022,07,25,13,30,27.40
2022,07,25,13,31,27.40
2022,07,25,13,32,27.50
2022,07,25,13,33,27.60
2022,07,25,13,34,27.60
2022,07,25,13,35,27.60
2022,07,25,13,36,27.60
2022,07,25,13,37,27.60
2022,07,25,13,38,27.60
2022,07,25,13,39,27.60
2022,07,25,13,40,27.60
2022,07,25,13,41,27.50
2022,07,25,13,42,27.60
2022,07,25,13,43,27.60
2022,07,25,13,44,27.70
2022,07,25,13,45,27.70
2022,07,25,13,46,27.80
2022,07,25,13,47,27.80
2022,07,25,13,48,27.90
2022,07,25,13,49,27.90
2022,07,25,13,50,28.00
2022,07,25,13,51,28.10
2022,07,25,13,52,28.10
2022,07,25,13,53,28.20
2022,07,25,13,54,28.20
2022,07,25,13,55,28.20
2022,07,25,13,56,28.10
2022,07,25,13,57,28.10
2022,07,25,13,58,28.10
2022,07,25,13,59,28.10
2022,07,25,14,00,28.10
2022,07,25,14,01,28.10
2022,07,25,14,02,28.20
2022,07,25,14,03,28.20
2022,07,25,14,04,28.20
2022,07,25,14,05,28.20
2022,07,25,14,06,28.20
2022,07,25,14,07,28.20
2022,07,25,14,08,28.20
2022,07,25,14,09,28.20
2022,07,25,14,10,28.20
2022,07,25,14,11,28.20
2022,07,25,14,12,28.20
2022,07,25,14,13,28.20
2022,07,25,14,14,28.30
2022,07,25,14,15,28.40
2022,07,25,14,16,28.40
2022,07,25,14,17,28.40
2022,07,25,14,18,28.40
2022,07,25,14,19,28.40
2022,07,25,14,20,28.40
2022,07,25,14,21,28.30
2022,07,25,14,22,28.30
2022,07,25,14,23,28.30
2022,07,25,14,24,28.30
2022,07,25,14,25,28.40
2022,07,25,14,26,28.40
2022,07,25,14,27,28.40
2022,07,25,14,28,28.40
2022,07,25,14,29,28.40
2022,07,25,14,30,28.40
2022,07,25,14,31,28.50
2022,07,25,14,32,28.50
2022,07,25,14,33,28.60
2022,07,25,14,34,28.70
2022,07,25,14,35,28.80
2022,07,25,14,36,28.80
2022,07,25,14,37,28.70
2022,07,25,14,38,28.60
2022,07,25,14,39,28.60
2022,07,25,14,40,28.60
2022,07,25,14,41,28.60
2022,07,25,14,42,28.60
2022,07,25,14,43,28.60
2022,07,25,14,44,28.70
2022,07,25,14,45,28.70
2022,07,25,14,46,28.80
2022,07,25,14,47,28.90
2022,07,25,14,48,29.00
2022,07,25,14,49,29.10
2022,07,25,14,50,29.10
2022,07,25,14,51,29.20
2022,07,25,14,52,29.20
2022,07,25,14,53,29.30
2022,07,25,14,54,29.40
2022,07,25,14,55,29.40
2022,07,25,14,56,29.40
2022,07,25,14,57,29.40
2022,07,25,14,58,29.40
2022,07,25,14,59,29.40
2022,07,25,15,00,29.30
2022,07,25,15,01,29.20
2022,07,25,15,02,29.10
2022,07,25,15,03,29.10
2022,07,25,15,04,29.00
2022,07,25,15,05,29.00
2022,07,25,15,06,29.00
2022,07,25,15,07,28.90
2022,07,25,15,08,28.90
2022,07,25,15,09,28.80
2022,07,25,15,10,28.80
2022,07,25,15,11,28.90
2022,07,25,15,12,28.90
2022,07,25,15,13,28.90
2022,07,25,15,14,28.90
2022,07,25,15,15,28.90
2022,07,25,15,16,29.00
2022,07,25,15,17,28.90
2022,07,25,15,18,28.90
2022,07,25,15,19,28.90
2022,07,25,15,20,29.00
2022,07,25,15,21,29.00
2022,07,25,15,22,29.10
2022,07,25,15,23,29.10
2022,07,25,15,24,29.10
2022,07,25,15,25,29.20
2022,07,25,15,26,29.20
2022,07,25,15,27,29.30
2022,07,25,15,28,29.30
2022,07,25,15,29,29.30
2022,07,25,15,30,29.40
2022,07,25,15,31,29.40
2022,07,25,15,32,29.50
2022,07,25,15,33,29.50
2022,07,25,15,34,29.50
2022,07,25,15,35,29.50
2022,07,25,15,36,29.50
2022,07,25,15,37,29.50
2022,07,25,15,38,29.40
2022,07,25,15,39,29.40
2022,07,25,15,40,29.30
2022,07,25,15,41,29.30
2022,07,25,15,42,29.30
2022,07,25,15,43,29.30
2022,07,25,15,44,29.30
2022,07,25,15,45,29.30
2022,07,25,15,46,29.30
2022,07,25,15,47,29.30
2022,07,25,15,48,29.30
2022,07,25,15,49,29.30
2022,07,25,15,50,29.30
2022,07,25,15,51,29.30
2022,07,25,15,52,29.20
2022,07,25,15,53,29.20
2022,07,25,15,54,29.10
2022,07,25,15,55,29.10
2022,07,25,15,56,29.10
2022,07,25,15,57,29.10
2022,07,25,15,58,29.00
2022,07,25,15,59,29.00
2022,07,25,16,00,28.90
2022,07,25,16,01,28.90
2022,07,25,16,02,28.80
2022,07,25,16,03,28.80
2022,07,25,16,04,28.80
2022,07,25,16,05,28.80
2022,07,25,16,06,28.90
2022,07,25,16,07,28.90
2022,07,25,16,08,28.90
2022,07,25,16,09,29.00
2022,07,25,16,10,29.00
2022,07,25,16,11,29.00
2022,07,25,16,12,29.10
2022,07,25,16,13,29.10
2022,07,25,16,14,29.00
2022,07,25,16,15,29.00
2022,07,25,16,16,29.10
2022,07,25,16,17,29.10
2022,07,25,16,18,29.20
2022,07,25,16,19,29.20
2022,07,25,16,20,29.30
2022,07,25,16,21,29.30
2022,07,25,16,22,29.40
2022,07,25,16,23,29.40
2022,07,25,16,24,29.40
2022,07,25,16,25,29.50
2022,07,25,16,26,29.60
2022,07,25,16,27,29.60
2022,07,25,16,28,29.70
2022,07,25,16,29,29.70
2022,07,25,16,30,29.70
2022,07,25,16,31,29.70
2022,07,25,16,32,29.60
2022,07,25,16,33,29.50
2022,07,25,16,34,29.50
2022,07,25,16,35,29.40
2022,07,25,16,36,29.50
2022,07,25,16,37,29.50
2022,07,25,16,38,29.50
2022,07,25,16,39,29.50
2022,07,25,16,40,29.50
2022,07,25,16,41,29.50
2022,07,25,16,42,29.50
2022,07,25,16,43,29.40
2022,07,25,16,44,29.30
2022,07,25,16,45,29.30
2022,07,25,16,46,29.20
2022,07,25,16,47,29.10
2022,07,25,16,48,29.10
2022,07,25,16,49,29.10
2022,07,25,16,50,29.20
2022,07,25,16,51,29.30
2022,07,25,16,52,29.30
2022,07,25,16,53,29.30
2022,07,25,16,54,29.40
2022,07,25,16,55,29.40
2022,07,25,16,56,29.40
2022,07,25,16,57,29.40
2022,07,25,16,58,29.40
2022,07,25,16,59,29.50
2022,07,25,17,00,29.50
2022,07,25,17,01,29.60
2022,07,25,17,02,29.60
2022,07,25,17,03,29.60
2022,07,25,17,04,29.70
2022,07,25,17,05,29.70
2022,07,25,17,06,29.80
2022,07,25,17,07,29.80
2022,07,25,17,08,29.80
2022,07,25,17,09,29.70
2022,07,25,17,10,29.70
2022,07,25,17,11,29.60
2022,07,25,17,12,29.60
2022,07,25,17,13,29.60
2022,07,25,17,14,29.60
2022,07,25,17,15,29.60
2022,07,25,17,16,29.60
2022,07,25,17,17,29.60
2022,07,25,17,18,29.50
2022,07,25,17,19,29.50